This demonstration page uses our WeatherBlox Daily Observations layout. Learn more.

Left ArrowRight Arrow

36.17497, -115.13722

Hourly Observations for May 5, 2017

Temp ( °F °C ) Dew Point ( °F °C ) Humidity (%) Winds ( mph kmh ) Pressure ( in mb ) Visibility ( mi km ) Precip ( " mm )
12:53 am 00:53 Clear 74 23.3 26 -3.3 17 17 NW 6 9 29.82 1010 10 16 0.00 0.00
1:53 am 01:53 Clear 74 23.3 31 -0.6 20 20 WNW 5 7 29.81 1009 10 16 0.00 0.00
2:53 am 02:53 Clear 70 21.1 32 0 25 25 NNE 5 7 29.81 1009 10 16 0.00 0.00
3:53 am 03:53 Clear 71 21.7 30 -1.1 22 22 WNW 6 9 29.81 1010 10 16 0.00 0.00
4:53 am 04:53 Clear 69 20.6 30 -1.1 23 23 NNW 5 7 29.81 1009 10 16 0.00 0.00
5:53 am 05:53 Sunny 70 21.1 29 -1.7 22 22 NNW 3 6 29.80 1009 10 16 0.00 0.00
6:53 am 06:53 Sunny 71 21.7 32 0 24 24 NNW 3 6 29.83 1010 10 16 0.00 0.00
7:53 am 07:53 Sunny 78 25.6 32 0 19 19 NNE 3 6 29.82 1010 10 16 0.00 0.00
8:53 am 08:53 Sunny 82 27.8 26 -3.3 13 13 ESE 5 7 29.82 1010 10 16 0.00 0.00
9:53 am 09:53 Sunny 85 29.4 29 -1.7 13 13 SE 9 15 29.81 1010 10 16 0.00 0.00
10:53 am 10:53 Sunny 89 31.7 31 -0.6 12 12 SE 9 15 29.80 1009 10 16 0.00 0.00
11:53 am 11:53 Sunny 92 33.3 30 -1.1 11 11 VRB 7 11 29.78 1008 10 16 0.00 0.00
12:53 pm 12:53 Sunny 96 35.6 29 -1.7 9 9 SSW 14 22 29.73 1007 10 16 0.00 0.00
1:00 pm 13:00 Sunny 99 37 25 -4 7 7 SW 21 33 29.56 1001 10 16 0.00 0.00
1:53 pm 13:53 Sunny 96 35.6 26 -3.3 8 8 SW 13 20 29.70 1006 10 16 0.00 0.00
2:53 pm 14:53 Sunny 97 36.1 23 -5 7 7 WSW 12 19 29.67 1005 10 16 0.00 0.00
3:53 pm 15:53 Sunny 97 36.1 27 -2.8 8 8 SSW 16 26 29.64 1004 10 16 0.00 0.00
4:53 pm 16:53 Sunny 96 35.6 24 -4.4 7 7 SSW 21 33 29.64 1004 10 16 0.00 0.00
5:53 pm 17:53 Sunny 96 35.6 25 -3.9 8 8 SW 17 28 29.63 1003 10 16 0.00 0.00
6:53 pm 18:53 Sunny 93 33.9 26 -3.3 9 9 SW 14 22 29.62 1003 10 16 0.00 0.00
7:53 pm 19:53 Clear 91 32.8 28 -2.2 10 10 SSW 10 17 29.61 1003 10 16 0.00 0.00
8:53 pm 20:53 Clear 89 31.7 26 -3.3 10 10 W 12 19 29.62 1003 10 16 0.00 0.00
9:53 pm 21:53 Clear 88 31.1 26 -3.3 10 10 W 10 17 29.62 1003 10 16 0.00 0.00
10:53 pm 22:53 Clear 86 30 26 -3.3 11 11 W 7 11 29.61 1003 10 16 0.00 0.00
11:53 pm 23:53 Clear 84 28.9 27 -2.8 12 12 WSW 6 9 29.60 1002 10 16 0.00 0.00

Powered by AerisWeather